Tracking 17694 objects as of 28-May-2016
HD Live streaming from Space Station
objects crossing your sky now

SKYNET 5B

Track SKYNET 5B now!
SKYNET 5B is classified as:


NORAD ID: 32294
Int'l Code: 2007-056B
Perigee: 35,779.2 km
Apogee: 35,807.9 km
Inclination: 0.1 °
Period: 1,436.1 minutes
Semi major axis: 42164 km
RCS: 14.1589 m2 (large)
Launch date: November 14, 2007
Source: United Kingdom (UK)
Launch site: FRENCH GUIANA (FRGUI)

Star One C1 is a C-, Ku-, and X-band telecommunications, multimedia and broadband internet satellite that will serve South America
Your satellite tracking list
Your tracking list is empty





NASA's NSSDC Master Catalog

Two Line Element Set (TLE):
1 32294U 07056B   16148.97063287 +.00000139 +00000-0 +00000-0 0  9993
2 32294 000.0671 357.9170 0003405 066.7103 195.8309 01.00272464031402
Source of the keplerian elements: AFSPC

N2YO: 651